SCP
0 0 0 0 0 0 0 0 0 0 0 0 0 0 0 0 0 0 0 0 0 0 0 0 0 0 0 0 0 0 0 0 0 0 0 0 0 0 0 0 0 0 0
0 0 0 0 0 0 0 0 0 0 0 0 0 0 0 0 0 0 0 0 0 0 0 0 0 0 0 0 0 0 0 0 0 0 0 0 0 0 0 0 0 0 0
0 0 0 0 0 0 0 0 0 0 0 0 0 0 0 0 0 0 0 0 0 0 0 0 0 0 0 0 0 0 0 0 0 0 0 0 0 0 0 0 0 0 0
0 0 0 0 0 0 0 0 0 0 0 0 0 0 0 0 0 0 0 0 0 0 0 0 0 0 0 0 0 0 0 0 0 0 0 0 0 0 0 0 0 0 0
0 0 0 0 0 0 0 0 0 0 0 0 0 0 0 0 0 0 0 0 0 0 0 0 0 0 0 0 0 0 0 0 0 0 0 0 0 0 0 0 0 0 0
0 0 0 0 0 0 0 0 0 0 0 0 0 0 0 0 0 0 0 0 0 0 0 0 0 0 0 0 0 0 0 0 0 0 0 0 0 0 0 0 0 0 0
0 0 0 1 1 0 0 0 0 0 0 0 0 0 0 0 0 0 0 0 0 0 0 0 0 0 0 0 0 0 0 0 0 0 0 0 0 0 0 0 0 0 0
0 0 1 1 1 1 0 0 0 0 0 0 0 0 0 0 0 0 0 0 0 0 0 0 0 0 0 0 0 0 0 0 0 0 0 0 0 0 0 0 0 0 0
0 0 1 1 1 1 1 1 1 0 0 0 0 0 0 0 0 0 0 0 0 0 0 0 0 0 0 0 0 0 0 0 0 0 0 0 0 0 0 0 0 0 0
0 0 1 1 1 1 1 1 1 1 0 0 0 0 0 0 0 0 0 0 0 0 0 0 0 0 0 0 0 0 0 0 0 0 0 0 0 0 0 0 0 0 0
0 0 0 1 1 1 1 1 1 1 1 0 0 0 0 0 0 0 0 0 0 0 0 0 0 0 0 0 0 0 0 0 0 0 0 0 0 0 0 0 0 0 0
0 0 0 1 1 1 1 1 1 1 1 1 1 0 0 0 0 0 0 0 0 0 0 0 0 0 0 0 0 0 0 0 0 0 0 0 0 0 0 0 0 0 0
0 0 0 1 1 1 1 1 1 1 1 1 1 0 0 0 0 0 0 0 0 0 0 0 0 0 0 0 0 0 0 0 0 0 0 0 0 0 0 0 0 0 0
0 0 0 1 1 0 0 0 1 1 1 1 1 1 1 1 0 0 0 0 0 0 0 0 0 0 0 0 0 0 0 0 0 0 0 0 0 0 0 0 0 0 0
0 0 0 0 0 0 0 0 1 1 1 1 1 1 1 1 1 1 1 0 0 0 0 0 0 0 0 0 0 0 0 0 0 0 0 0 0 0 0 0 0 0 0
0 0 0 0 0 0 1 1 1 1 1 1 1 1 1 1 1 1 1 1 1 0 0 0 0 0 0 0 0 0 0 0 0 0 0 0 0 0 0 0 0 0 0
0 0 0 0 0 0 1 1 1 1 1 1 1 1 1 1 1 1 1 1 1 1 1 0 0 0 0 0 0 0 0 0 0 0 0 0 0 0 0 0 0 0 0
0 0 0 0 0 0 0 1 1 1 1 1 1 1 1 1 1 1 1 1 1 1 1 1 0 0 0 0 0 0 0 0 0 0 0 0 0 0 0 0 0 0 0
0 0 0 0 0 0 0 0 1 1 1 1 1 1 1 1 1 1 1 1 1 1 1 1 1 0 0 0 0 0 0 0 0 0 0 0 0 0 0 0 0 0 0
0 0 0 0 0 0 0 0 1 1 1 1 1 1 1 1 1 1 1 1 1 1 1 1 1 0 0 0 0 0 0 0 0 0 0 0 0 0 0 0 0 0 0
0 0 0 0 0 0 0 0 1 1 1 1 1 1 1 1 1 1 1 1 1 1 1 1 1 0 0 0 0 0 0 0 0 0 0 0 0 0 0 0 0 0 0
0 0 0 0 0 0 0 0 0 0 1 1 1 1 1 1 1 1 1 1 1 1 1 1 0 0 0 0 0 0 0 0 0 0 0 0 0 0 0 0 0 0 0
0 0 0 0 0 0 0 0 0 1 1 1 1 1 1 1 1 1 1 1 1 1 1 0 0 0 0 0 0 0 0 0 0 0 0 0 0 0 0 0 0 0 0
0 0 0 0 0 0 0 0 0 1 1 1 1 1 1 1 1 1 1 1 1 0 0 0 0 0 0 0 0 0 0 0 0 0 0 0 0 0 0 0 0 0 0
0 0 0 0 0 0 0 0 0 1 1 1 1 1 1 1 1 0 0 0 0 0 0 0 0 0 0 0 0 0 0 0 0 0 0 0 0 0 0 0 0 0 0
0 0 0 0 0 0 0 0 0 1 1 1 1 1 1 1 0 0 0 0 0 0 0 0 0 0 0 0 0 0 0 0 0 0 0 0 0 0 0 0 0 0 0
Wind_Speed
8 7 8 8 7 7 7 7 7 6 5 3 3 3 2 2 1 2 3 3 3 3 3 2 2 3 3 3 3 2 2 1 1 1 1 2 1 1 1 2 2 2 3
7 8 9 8 9 9 8 8 8 7 6 4 3 2 2 2 2 1 2 2 3 3 3 3 3 3 2 2 3 3 2 1 1 2 1 1 2 2 1 1 1 2 2
11 10 10 10 9 9 10 9 8 7 6 5 3 2 2 2 1 1 1 2 3 3 3 3 3 3 3 3 3 3 4 3 1 1 2 2 2 2 2 1 1 1 2
10 10 10 10 11 11 10 8 7 7 6 6 5 5 4 4 3 2 2 2 2 2 3 3 3 3 2 3 3 3 3 3 2 1 1 2 2 1 1 2 1 2 2
12 12 13 12 11 11 10 8 7 7 6 6 6 6 4 3 2 2 2 1 1 2 2 3 3 3 3 3 3 3 3 3 3 3 2 2 1 2 2 2 2 2 2
13 12 12 10 9 9 9 8 8 7 6 7 6 6 6 5 4 3 2 1 1 1 2 2 2 3 3 3 3 3 4 3 3 3 2 2 2 2 3 3 2 2 2
11 12 12 12 11 11 11 10 10 8 7 8 7 7 7 6 6 5 4 3 2 2 3 3 2 2 3 3 3 3 3 4 4 4 3 3 3 2 3 3 2 2 2
9 11 13 13 13 13 12 11 11 9 9 8 8 6 6 5 4 5 4 4 3 3 3 3 2 3 3 3 2 2 3 3 4 4 4 3 3 3 3 3 2 2 2
9 10 11 12 13 13 13 13 12 10 9 9 7 6 6 6 5 4 4 3 3 3 3 3 2 2 2 2 2 2 3 3 3 3 4 3 3 3 3 3 3 3 2
7 8 9 11 12 11 11 10 10 10 9 9 8 7 6 6 5 5 5 4 4 3 2 2 2 2 2 2 2 2 2 2 3 2 3 3 3 3 3 3 3 3 3
6 8 8 9 9 8 9 9 9 8 7 8 7 6 6 6 5 5 5 4 3 4 3 3 3 3 3 3 2 2 2 3 2 2 3 3 3 2 2 3 3 3 4
4 6 7 7 7 8 9 9 9 9 8 7 7 6 6 5 5 5 4 4 4 4 4 3 3 3 3 3 3 3 3 3 3 3 3 3 2 3 2 2 3 3 4
3 4 6 7 8 8 8 9 9 9 8 7 7 7 6 6 6 5 4 4 4 3 3 3 3 3 3 3 3 3 3 3 3 3 3 3 3 3 3 3 3 3 3
3 4 5 7 7 8 8 8 8 8 8 8 7 7 7 7 6 5 5 5 4 4 4 3 3 3 3 3 2 2 2 3 3 3 4 4 4 4 4 3 3 3 2
3 4 5 5 6 7 7 7 7 7 7 7 7 7 6 6 6 5 5 5 5 5 4 4 3 3 3 3 2 2 2 3 3 3 4 4 4 5 4 3 3 3 3
3 4 4 4 6 7 7 7 7 7 7 7 7 6 6 6 6 6 5 5 5 4 4 4 4 4 3 3 4 3 2 3 3 4 4 3 3 3 3 3 3 4 4
3 3 4 4 5 6 7 8 7 7 8 8 7 6 6 6 6 6 5 5 5 4 4 4 4 4 4 5 5 4 3 3 3 3 3 3 2 2 2 2 2 2 4
3 3 2 2 3 3 4 5 6 6 7 7 7 6 6 6 6 5 6 5 4 4 4 4 4 4 4 5 4 4 3 2 3 3 3 3 3 3 3 2 2 2 2
3 4 4 3 2 2 3 5 5 5 5 6 6 6 6 6 5 6 5 4 4 4 4 3 4 4 4 5 4 3 2 2 2 2 3 3 3 3 2 2 2 2 2
1 2 3 3 3 2 3 4 5 4 4 5 5 5 5 6 6 6 4 3 4 4 4 3 3 4 4 4 4 4 2 1 1 1 2 2 2 2 2 3 3 3 3
2 4 5 4 2 2 3 3 3 3 4 3 3 3 4 5 5 4 3 3 3 3 2 2 1 2 2 3 4 4 2 2 2 1 1 1 1 1 2 3 3 4 3
2 4 4 3 2 3 4 3 2 2 1 2 3 3 3 3 4 4 4 4 4 3 2 2 1 0 1 1 2 4 4 3 2 2 1 1 1 1 1 1 2 2 2
2 3 4 4 2 2 3 3 2 2 2 2 2 3 3 3 3 4 4 3 3 3 2 2 1 1 1 1 0 2 2 2 1 1 1 1 2 1 0 0 1 1 1
2 2 4 4 2 1 1 1 1 2 3 3 2 3 3 3 3 3 3 3 3 3 2 2 2 1 0 0 1 0 1 1 1 0 1 2 2 2 2 1 1 0 0
2 2 4 4 3 2 1 1 2 3 3 3 2 3 3 3 3 3 2 3 2 3 4 3 3 3 1 1 1 1 1 1 1 1 1 2 2 1 1 1 1 0 0
2 2 3 3 2 2 2 1 2 4 4 3 2 2 3 3 3 3 3 4 3 3 3 3 4 2 2 2 2 2 2 2 3 3 1 1 1 1 1 1 1 1 1
Wind_Direction
205 190 184 182 174 174 176 181 181 180 166 161 165 166 185 183 177 184 185 181 178 172 173 188 177 172 175 183 171 156 159 180 137 101 342 324 313 282 264 256 244 243 238
197 190 184 181 182 183 183 185 186 182 180 181 175 172 162 169 179 179 173 184 183 179 184 185 189 183 178 178 175 164 160 186 168 149 132 324 331 320 286 256 236 251 247
201 194 188 187 186 189 191 193 192 186 182 172 146 126 107 95 126 164 190 196 181 178 179 183 185 183 183 194 196 185 181 191 197 175 162 172 236 301 313 281 262 258 242
202 195 190 190 191 195 193 192 187 185 182 169 164 161 166 179 191 184 184 179 172 177 183 186 187 188 189 196 206 196 191 183 197 195 202 193 175 188 298 313 288 267 254
200 195 194 194 193 190 187 186 182 185 180 172 173 171 177 183 162 146 153 169 171 186 190 185 182 191 197 203 201 187 192 196 198 193 185 194 201 195 204 273 302 305 275
203 198 195 188 186 182 181 179 179 187 182 176 177 178 177 171 158 164 171 180 181 199 207 190 189 199 202 206 207 200 195 201 201 199 189 183 184 197 198 228 258 277 280
200 195 190 186 184 183 184 181 180 187 184 180 185 187 183 178 181 183 187 187 198 213 221 207 201 207 211 209 201 198 206 204 202 206 209 208 214 193 188 204 234 254 275
197 195 192 187 185 186 185 182 184 188 186 186 191 189 185 187 192 190 186 193 204 216 214 203 206 215 212 209 197 199 212 207 211 218 213 214 216 204 201 197 198 245 271
196 192 189 186 183 185 187 185 184 186 187 188 187 188 189 191 191 186 186 193 202 206 197 193 195 211 213 204 194 209 217 206 215 221 214 216 217 207 209 205 197 201 245
192 188 187 187 186 186 183 179 182 186 187 188 191 192 191 192 189 182 191 197 202 201 186 190 197 205 213 204 197 214 222 210 225 221 216 223 223 211 207 207 208 208 214
194 189 188 186 181 174 170 173 176 178 183 186 185 183 184 185 182 187 194 195 194 190 195 199 204 202 206 206 201 213 216 215 232 232 221 229 220 214 213 207 207 210 208
193 181 170 167 167 170 170 171 175 183 188 183 178 181 178 174 180 189 192 188 190 191 194 195 200 209 213 209 208 221 226 220 227 238 230 239 227 223 222 214 217 218 214
173 157 157 165 172 173 174 174 179 187 185 176 177 179 181 180 188 194 190 188 192 193 193 192 204 213 216 217 220 222 227 228 232 235 233 239 227 231 227 219 224 229 224
165 162 167 175 177 177 177 178 185 183 177 174 180 186 190 190 193 193 190 191 190 191 196 201 209 213 213 215 219 224 229 235 241 240 237 237 229 228 227 224 225 220 213
167 179 182 179 176 179 183 182 179 174 171 173 184 194 193 187 187 189 192 193 194 198 197 197 207 212 211 217 211 218 230 237 250 251 245 241 229 226 222 223 218 206 202
201 194 188 179 182 186 187 185 180 173 168 176 189 190 188 188 191 192 188 191 197 198 196 202 205 213 225 221 210 207 222 235 243 253 258 252 238 236 233 231 216 202 199
210 203 193 190 191 191 185 183 183 174 173 179 186 187 190 193 196 195 189 196 199 194 201 209 210 218 227 217 213 216 216 232 243 247 256 262 260 245 244 245 228 214 207
193 194 189 190 193 181 175 173 168 170 175 178 188 190 191 196 194 191 199 203 198 198 205 211 214 220 230 216 213 216 210 231 248 251 247 247 260 254 230 219 232 245 240
182 178 172 169 158 146 155 157 162 166 177 188 194 196 193 194 192 195 200 199 189 197 202 206 209 220 235 221 216 199 186 221 259 269 263 250 247 253 217 199 217 245 262
153 146 128 111 115 132 132 142 153 158 187 201 201 196 191 192 197 198 193 186 185 198 198 207 210 213 227 226 213 187 177 200 253 289 293 276 253 238 201 205 210 226 246
144 128 116 119 133 137 121 137 150 177 201 194 181 178 183 185 187 184 177 170 176 179 187 192 205 207 220 223 210 192 185 194 214 260 294 298 267 219 203 204 215 227 230
119 128 127 127 125 132 129 141 173 197 169 156 159 168 172 178 171 160 162 161 162 166 172 164 177 285 252 224 219 208 202 189 185 224 263 284 277 231 214 213 233 222 202
129 134 136 127 113 127 139 159 201 163 139 142 163 168 161 161 159 161 161 157 154 163 172 169 178 247 317 356 323 207 198 191 191 224 243 302 323 332 357 333 258 209 183
128 130 128 125 126 130 133 168 163 136 135 148 161 156 150 145 145 153 158 161 166 167 168 172 182 199 218 38 42 65 128 134 143 124 69 52 42 39 41 33 38 322 225
131 140 148 154 167 156 142 137 136 135 138 143 144 144 148 147 141 137 145 159 169 174 176 182 178 175 192 236 197 163 177 182 173 130 87 57 36 30 14 11 24 14 40
145 146 147 163 175 164 156 151 149 147 146 146 153 154 143 137 134 125 93 60 82 103 129 157 168 176 181 170 162 163 150 134 132 112 92 62 33 316 295 295 307 306 296